EW3670 Weather Reports


Display with metric or nautical units.
time (UTC)temp
F
wind
direction
speed
MPH
gust
MPH
rain 1hr
in
rain 24hr
in
rain mn
in
humidity
%
barometer
mb
20260901160105 74 96 3.0 13.0 0.00 0.12 0.12 56 1015.6
20260901154601 73 124 6.0 13.0 0.00 0.12 0.12 57 1015.6
20260901153059 72 173 4.0 12.0 0.00 0.12 0.12 59 1015.8
20260901151606 70 180 5.0 15.0 0.00 0.12 0.12 61 1016.0
20260901144600 69 98 1.0 10.0 0.00 0.12 0.12 68 1016.0
20260901143100 68 127 2.0 9.0 0.00 0.12 0.12 69 1016.2
20260901141610 67 50 2.0 11.0 0.00 0.12 0.12 70 1016.1
20260901140100 67 59 2.0 9.0 0.00 0.12 0.12 71 1016.0
20260901134604 66 40 2.0 10.0 0.00 0.12 0.12 73 1016.1
20260901133104 65 48 2.0 5.0 0.00 0.12 0.12 74 1016.2
20260901131615 64 9 2.0 6.0 0.00 0.12 0.12 76 1016.1
20260901130106 64 141 2.0 6.0 0.00 0.12 0.12 76 1015.9
20260901124602 63 86 1.0 6.0 0.00 0.12 0.12 78 1015.8
20260901123101 63 9 2.0 6.0 0.00 0.12 0.12 79 1015.6
20260901121613 63 17 1.0 6.0 0.00 0.12 0.12 82 1015.4
20260901120124 63 5 2.0 6.0 0.00 0.12 0.12 82 1015.3
20260901114605 62 81 2.0 9.0 0.00 0.12 0.12 85 1015.4
20260901113103 62 352 1.0 7.0 0.00 0.12 0.12 86 1015.3
20260901111609 62 158 2.0 5.0 0.00 0.12 0.12 86 1015.0
20260901110057 62 121 1.0 7.0 0.00 0.12 0.12 87 1014.8
20260901104603 62 115 1.0 5.0 0.00 0.12 0.12 87 1015.5
20260901103124 62 18 1.0 6.0 0.00 0.12 0.12 88 1015.6
20260901101602 62 113 1.0 4.0 0.00 0.12 0.12 87 1015.4
20260901100106 62 121 1.0 5.0 0.00 0.12 0.12 87 1015.6
20260901094600 62 100 1.0 3.0 0.00 0.12 0.12 87 1015.4
20260901093132 63 107 1.0 3.0 0.00 0.12 0.12 88 1015.5
20260901091608 63 0 0.0 3.0 0.00 0.12 0.12 87 1015.4
20260901090101 63 52 0.0 2.0 0.00 0.12 0.12 88 1015.5
20260901084558 63 44 1.0 4.0 0.01 0.12 0.12 88 1015.3
20260901083108 63 75 2.0 4.0 0.03 0.12 0.12 88 1015.4
20260901081615 63 87 2.0 4.0 0.07 0.12 0.12 88 1015.1
20260901080103 63 109 0.0 3.0 0.10 0.12 0.12 88 1015.1
20260901074559 63 0 1.0 2.0 0.11 0.11 0.11 88 1015.4
20260901073058 64 0 0.0 2.0 0.09 0.09 0.09 89 1015.7
20260901071606 64 41 1.0 4.0 0.05 0.05 0.05 87 1015.7
20260901064605 66 0 1.0 3.0 0.00 0.00 0.00 82 1015.5
20260901063100 66 44 2.0 6.0 0.00 0.00 0.00 82 1015.5
20260901061600 66 49 0.0 2.0 0.00 0.00 0.00 83 1015.7
20260901060100 66 0 0.0 2.0 0.00 0.00 0.00 83 1015.8
20260901054603 66 0 0.0 3.0 0.00 0.00 0.00 82 1015.6
20260901053122 66 28 0.0 2.0 0.00 0.00 0.00 82 1015.8
20260901051557 67 0 0.0 2.0 0.00 0.00 0.00 81 1015.8
20260901050104 67 111 1.0 2.0 0.00 0.00 0.00 80 1015.9
20260901044558 67 11 1.0 3.0 0.00 0.00 0.00 80 1015.8
20260901043125 68 67 1.0 2.0 0.00 0.00 0.00 80 1015.8
20260901041610 68 0 1.0 3.0 0.00 0.00 0.00 80 1015.7
20260901040109 68 101 1.0 2.0 0.00 0.00 0.00 79 1015.8
20260901034607 69 37 0.0 3.0 0.00 0.00 0.00 79 1015.8
20260901033108 69 0 1.0 3.0 0.00 0.00 0.00 79 1015.8
20260901031555 69 50 0.0 2.0 0.00 0.00 0.00 79 1016.2
20260901030103 69 0 0.0 2.0 0.00 0.00 0.00 79 1016.2
20260901024607 70 0 0.0 2.0 0.00 0.00 0.00 79 1016.2
20260901023102 69 0 0.0 0.0 0.00 0.00 0.00 80 1016.2
20260901021609 70 0 0.0 0.0 0.00 0.00 0.00 79 1016.2
20260901020111 70 120 0.0 1.0 0.00 0.00 0.00 79 1016.2
20260901014605 70 0 0.0 2.0 0.00 0.00 0.00 79 1016.3
20260901013057 70 145 0.0 1.0 0.00 0.00 0.00 79 1016.1
20260901011603 70 0 0.0 2.0 0.00 0.00 0.00 79 1016.2
20260901004608 71 0 0.0 0.0 0.00 0.00 0.00 77 1016.4
20260901003103 71 0 0.0 0.0 0.00 0.00 0.00 76 1016.4
20260901001600 71 0 0.0 0.0 0.00 0.00 0.00 75 1016.2
20260901000057 71 0 0.0 2.0 0.00 0.00 0.00 75 1016.3
20260831234605 72 0 0.0 2.0 0.00 0.00 0.00 74 1016.4
20260831233102 72 0 0.0 0.0 0.00 0.00 0.00 77 1016.7
20260831231557 71 0 0.0 2.0 0.00 0.00 0.00 77 1016.7
20260831230108 71 205 1.0 2.0 0.00 0.00 0.00 76 1016.8
20260831224601 72 200 1.0 2.0 0.00 0.00 0.00 74 1016.8
20260831223058 74 115 1.0 4.0 0.00 0.00 0.00 65 1017.0
20260831221608 74 0 0.0 2.0 0.00 0.00 0.00 65 1016.8
20260831220129 74 155 0.0 2.0 0.00 0.00 0.00 64 1016.8
20260831214556 75 0 0.0 2.0 0.00 0.00 0.00 65 1016.9
20260831213106 75 0 0.0 2.0 0.00 0.00 0.00 63 1016.8
20260831211604 74 0 0.0 3.0 0.00 0.00 0.00 64 1016.8
20260831210100 75 0 1.0 4.0 0.00 0.00 0.00 63 1016.8
20260831204559 75 117 0.0 2.0 0.00 0.00 0.00 62 1017.0
20260831203134 75 157 1.0 7.0 0.00 0.00 0.00 62 1017.3
20260831201606 74 34 1.0 6.0 0.00 0.00 0.00 61 1017.2
20260831200106 77 0 0.0 3.0 0.00 0.00 0.00 59 1017.2
20260831194611 75 280 1.0 3.0 0.00 0.00 0.00 62 1017.3
20260831193102 76 256 0.0 4.0 0.00 0.00 0.00 62 1017.4
20260831191557 74 117 2.0 5.0 0.00 0.00 0.00 63 1017.5
20260831190132 74 83 1.0 3.0 0.00 0.00 0.00 63 1017.9
20260831184609 75 118 1.0 4.0 0.00 0.00 0.00 65 1018.1
20260831183059 73 124 1.0 3.0 0.00 0.00 0.00 67 1018.3
20260831181606 74 0 1.0 4.0 0.00 0.00 0.00 67 1018.4
20260831174602 73 260 1.0 3.0 0.00 0.00 0.00 70 1018.8
20260831173058 71 332 1.0 2.0 0.00 0.00 0.00 75 1018.8
20260831171607 71 143 0.0 4.0 0.00 0.00 0.00 77 1018.9
20260831170110 70 0 1.0 4.0 0.00 0.00 0.00 79 1019.2
20260831164604 69 47 1.0 4.0 0.00 0.00 0.00 81 1019.2
20260831163105 68 60 1.0 6.0 0.00 0.00 0.00 83 1019.3
20260831161607 67 34 1.0 3.0 0.00 0.00 0.00 84 1019.5